TimeEST,TemperatureF,Dew PointF,Humidity,Sea Level PressureIn,VisibilityMPH,Wind Direction,Wind SpeedMPH,Gust SpeedMPH,PrecipitationIn,Events,Conditions,WindDirDegrees,DateUTC
12:15 AM,41.0,32.0,70,29.88,7.0,SSE,9.2,16.1,N/A,,Scattered Clouds,160,2013-02-26 05:15:00
12:35 AM,41.0,32.0,70,29.87,7.0,South,9.2,19.6,N/A,,Scattered Clouds,170,2013-02-26 05:35:00
12:55 AM,41.0,32.0,70,29.86,7.0,SSE,8.1,-,N/A,,Mostly Cloudy,150,2013-02-26 05:55:00
1:15 AM,41.0,32.0,70,29.85,7.0,SSE,10.4,16.1,N/A,,Overcast,160,2013-02-26 06:15:00
1:35 AM,41.0,32.0,70,29.84,7.0,SSE,8.1,18.4,N/A,,Overcast,150,2013-02-26 06:35:00
1:55 AM,41.0,32.0,70,29.84,5.0,SE,5.8,-,N/A,,Haze,140,2013-02-26 06:55:00
2:15 AM,41.0,32.0,70,29.83,5.0,SE,6.9,-,N/A,,Haze,130,2013-02-26 07:15:00
2:35 AM,39.2,32.0,75,29.81,7.0,SE,8.1,-,N/A,,Clear,140,2013-02-26 07:35:00
2:55 AM,39.2,32.0,75,29.80,5.0,SSE,10.4,18.4,N/A,,Haze,160,2013-02-26 07:55:00
3:15 AM,39.2,32.0,75,29.79,7.0,SSE,11.5,18.4,N/A,,Clear,160,2013-02-26 08:15:00
3:35 AM,39.2,32.0,75,29.78,7.0,SSE,10.4,17.3,N/A,,Clear,160,2013-02-26 08:35:00
3:55 AM,39.2,32.0,75,29.77,7.0,SSE,8.1,18.4,N/A,,Clear,160,2013-02-26 08:55:00
4:15 AM,39.2,32.0,75,29.77,7.0,SSE,9.2,17.3,N/A,,Clear,150,2013-02-26 09:15:00
4:35 AM,41.0,33.8,76,29.77,7.0,SSE,10.4,20.7,N/A,,Mostly Cloudy,150,2013-02-26 09:35:00
4:55 AM,41.0,33.8,76,29.77,7.0,SSE,11.5,24.2,N/A,,Overcast,150,2013-02-26 09:55:00
5:15 AM,41.0,33.8,76,29.77,5.0,SSE,11.5,26.5,N/A,,Haze,160,2013-02-26 10:15:00
5:35 AM,39.2,33.8,81,29.77,5.0,SSE,15.0,20.7,N/A,,Haze,160,2013-02-26 10:35:00
5:55 AM,41.0,33.8,76,29.77,7.0,SSE,16.1,24.2,N/A,,Overcast,160,2013-02-26 10:55:00
6:15 AM,39.2,35.6,87,29.75,7.0,SSE,12.7,21.9,N/A,Rain,Light Rain,160,2013-02-26 11:15:00
6:35 AM,37.4,37.4,100,29.72,7.0,SE,13.8,25.3,0.02,Rain,Light Rain,140,2013-02-26 11:35:00
6:55 AM,37.4,37.4,100,29.71,7.0,SSE,10.4,25.3,0.03,Rain,Light Rain,160,2013-02-26 11:55:00
7:15 AM,37.4,37.4,100,29.71,5.0,SE,10.4,18.4,0.01,Rain,Light Rain,140,2013-02-26 12:15:00
7:35 AM,37.4,37.4,100,29.69,5.0,SSE,9.2,19.6,0.03,Rain,Rain,150,2013-02-26 12:35:00
7:55 AM,39.2,39.2,100,29.69,3.0,SSE,8.1,19.6,0.06,Rain,Rain,150,2013-02-26 12:55:00
8:15 AM,39.2,39.2,100,29.66,5.0,ESE,8.1,21.9,0.02,Rain,Light Rain,120,2013-02-26 13:15:00
8:35 AM,39.2,39.2,100,29.65,5.0,ESE,9.2,16.1,0.02,,Overcast,120,2013-02-26 13:35:00
8:55 AM,41.0,41.0,100,29.64,3.0,SE,11.5,19.6,0.05,Rain,Rain,130,2013-02-26 13:55:00
9:15 AM,41.0,41.0,100,29.62,7.0,SE,11.5,19.6,N/A,Rain,Light Rain,130,2013-02-26 14:15:00
9:35 AM,41.0,41.0,100,29.62,7.0,SE,10.4,24.2,0.01,Rain,Light Rain,140,2013-02-26 14:35:00
9:55 AM,42.8,42.8,100,29.62,5.0,SE,11.5,28.8,0.01,,Overcast,130,2013-02-26 14:55:00
10:15 AM,42.8,42.8,100,29.59,-9999.0,SE,9.2,-,N/A,Rain,Light Rain,140,2013-02-26 15:15:00
10:35 AM,42.8,42.8,100,29.58,4.0,SSE,9.2,23.0,0.01,,Overcast,150,2013-02-26 15:35:00
10:55 AM,42.8,42.8,100,29.57,4.0,SE,9.2,23.0,0.01,Rain,Light Rain,130,2013-02-26 15:55:00
11:15 AM,44.6,44.6,100,29.54,4.0,SE,11.5,26.5,N/A,,Overcast,140,2013-02-26 16:15:00
11:35 AM,46.4,44.6,93,29.54,2.5,SSE,13.8,24.2,N/A,,Overcast,150,2013-02-26 16:35:00
11:55 AM,46.4,42.8,87,29.56,2.5,SSE,15.0,21.9,N/A,,Haze,160,2013-02-26 16:55:00
12:15 PM,46.4,41.0,81,29.56,2.5,SSE,12.7,23.0,N/A,,Haze,150,2013-02-26 17:15:00
12:35 PM,44.6,41.0,87,29.55,3.0,SE,5.8,-,N/A,,Overcast,130,2013-02-26 17:35:00
1:15 PM,44.6,41.0,87,29.54,0.8,SSE,6.9,-,0.03,Rain,Rain,150,2013-02-26 18:15:00
1:35 PM,44.6,42.8,93,29.52,7.0,SSE,6.9,-,0.05,Rain,Light Rain,150,2013-02-26 18:35:00
1:55 PM,42.8,42.8,100,29.52,3.0,SSE,6.9,-,0.09,Rain,Light Rain,150,2013-02-26 18:55:00
2:15 PM,44.6,44.6,100,29.49,5.0,SSE,10.4,16.1,0.01,,Overcast,160,2013-02-26 19:15:00
2:35 PM,44.6,44.6,100,29.47,5.0,SSE,8.1,18.4,0.01,,Overcast,150,2013-02-26 19:35:00
2:55 PM,46.4,44.6,93,29.46,4.0,SSE,10.4,19.6,0.01,,Overcast,160,2013-02-26 19:55:00
3:15 PM,44.6,44.6,100,29.47,2.5,SSE,6.9,17.3,N/A,,Overcast,160,2013-02-26 20:15:00
3:35 PM,44.6,44.6,100,29.48,4.0,East,5.8,-,N/A,,Overcast,90,2013-02-26 20:35:00
3:55 PM,46.4,44.6,93,29.46,3.0,Calm,Calm,-,N/A,,Overcast,0,2013-02-26 20:55:00
4:15 PM,46.4,42.8,87,29.45,3.0,SE,6.9,-,N/A,,Overcast,130,2013-02-26 21:15:00
4:35 PM,48.2,42.8,82,29.45,3.0,SSE,4.6,-,N/A,,Haze,150,2013-02-26 21:35:00
5:15 PM,48.2,42.8,82,29.45,3.0,SSE,6.9,-,N/A,Thunderstorm,Unknown,160,2013-02-26 22:15:00
5:35 PM,46.4,42.8,87,29.47,7.0,SSE,6.9,-,N/A,,Overcast,160,2013-02-26 22:35:00
5:55 PM,46.4,42.8,87,29.48,5.0,South,5.8,-,N/A,,Overcast,170,2013-02-26 22:55:00
6:15 PM,46.4,42.8,87,29.50,3.0,South,5.8,-,N/A,,Overcast,190,2013-02-26 23:15:00
6:35 PM,44.6,44.6,100,29.52,2.5,SW,15.0,24.2,N/A,,Overcast,230,2013-02-26 23:35:00
6:55 PM,44.6,42.8,93,29.53,7.0,WSW,25.3,34.5,N/A,,Overcast,240,2013-02-26 23:55:00
7:15 PM,44.6,41.0,87,29.54,7.0,SW,19.6,28.8,N/A,,Overcast,230,2013-02-27 00:15:00
7:35 PM,44.6,41.0,87,29.55,7.0,SW,21.9,29.9,N/A,,Overcast,220,2013-02-27 00:35:00
7:55 PM,42.8,37.4,81,29.56,10.0,SW,19.6,33.4,N/A,,Overcast,220,2013-02-27 00:55:00
8:15 PM,42.8,35.6,76,29.56,10.0,SW,18.4,25.3,N/A,,Scattered Clouds,220,2013-02-27 01:15:00
8:35 PM,41.0,35.6,81,29.56,10.0,SW,11.5,20.7,N/A,,Mostly Cloudy,220,2013-02-27 01:35:00
8:55 PM,41.0,35.6,81,29.57,7.0,SW,15.0,23.0,N/A,,Mostly Cloudy,230,2013-02-27 01:55:00
9:15 PM,41.0,35.6,81,29.58,10.0,SW,10.4,-,N/A,,Overcast,220,2013-02-27 02:15:00
9:35 PM,41.0,35.6,81,29.59,10.0,SW,13.8,-,N/A,,Overcast,230,2013-02-27 02:35:00
9:55 PM,41.0,35.6,81,29.59,10.0,SW,16.1,-,N/A,,Overcast,230,2013-02-27 02:55:00
10:15 PM,41.0,35.6,81,29.60,10.0,SW,17.3,23.0,N/A,,Overcast,230,2013-02-27 03:15:00
10:35 PM,41.0,35.6,81,29.61,7.0,SW,13.8,19.6,N/A,,Overcast,230,2013-02-27 03:35:00
10:55 PM,41.0,35.6,81,29.60,7.0,WSW,9.2,-,N/A,,Overcast,250,2013-02-27 03:55:00
11:15 PM,39.2,35.6,87,29.60,7.0,SW,8.1,17.3,N/A,,Overcast,230,2013-02-27 04:15:00
11:35 PM,39.2,35.6,87,29.59,7.0,WSW,15.0,23.0,N/A,,Overcast,240,2013-02-27 04:35:00
11:55 PM,39.2,35.6,87,29.59,7.0,SW,15.0,23.0,N/A,,Overcast,230,2013-02-27 04:55:00